Location: Capvern
(43.1036°N, 0.3160°E)
Time: 04:53:13
(UTC+00:00)

Cosmos 724 - Pass Details

Date: 16 October 2021
Orbit: 857 x 937 km, 65.6° (Epoch: 02 December)

Event Time Altitude Azimuth Distance (km) Brightness Sun altitude
Rises 19:17:13 0° 327° (NNW) 3,531 8.0 -23.2°
Reaches altitude 10° 19:19:46 10° 329° (NNW) 2,575 7.2 -23.6°
Maximum altitude 19:25:44 80° 56° (ENE) 898 4.1 -24.7°
Enters shadow 19:26:52 60° 130° (SE) 1,003 4.2 -24.9°
